Voltar ao catálogo

DELTA 1 DEB

AtivoSSO
NORAD 40758·DEBRIS·🇺🇸 United States

Lançado Jul 29, 1976 de Vandenberg Space Force Base

Loading…

Próximas Passagens (próximas 24 horas)

TLE

AtualizadoSource: Space-Track

Época: Sep 14, 2026, 03:18 UTC

1 40758U 76077GB  26257.13789649 -.00000023  00000-0  20334-3 0  9991
2 40758 102.5374 228.2078 0089099 308.8523 112.3605 12.25504159573008

Acompanhe DELTA 1 DEB em tempo real com AllMySat

Download on the App Store